GW1010 Weather Reports


Display with metric or nautical units.
time (UTC)temp
F
wind
direction
speed
MPH
gust
MPH
rain 1hr
in
rain 24hr
in
rain mn
in
humidity
%
barometer
mb
20260507004028 78 252 1.0 6.0 0.00 0.00 0.00 45 1016.8
20260507003529 78 253 1.0 5.0 0.00 0.00 0.00 45 1016.8
20260507003042 78 283 1.0 7.0 0.00 0.00 0.00 45 1016.8
20260507002528 79 241 1.0 7.0 0.00 0.00 0.00 44 1016.7
20260507002029 79 245 1.0 4.0 0.00 0.00 0.00 44 1016.6
20260507001600 79 32 1.0 5.0 0.00 0.00 0.00 44 1016.6
20260507001028 80 240 1.0 6.0 0.00 0.00 0.00 44 1016.6
20260507000528 80 263 2.0 6.0 0.00 0.00 0.00 43 1016.5
20260507000047 80 250 1.0 6.0 0.00 0.00 0.00 43 1016.4
20260506235530 81 266 1.0 6.0 0.00 0.00 0.00 43 1016.5
20260506235028 81 255 1.0 6.0 0.00 0.00 0.00 44 1016.4
20260506234552 81 86 2.0 6.0 0.00 0.00 0.00 43 1016.5
20260506234028 81 233 1.0 6.0 0.00 0.00 0.00 43 1016.5
20260506233529 81 67 2.0 7.0 0.00 0.00 0.00 43 1016.4
20260506233042 82 56 2.0 7.0 0.00 0.00 0.00 42 1016.5
20260506232530 82 136 2.0 5.0 0.00 0.00 0.00 42 1016.5
20260506232029 82 82 1.0 6.0 0.00 0.00 0.00 42 1016.5
20260506231540 82 242 2.0 7.0 0.00 0.00 0.00 43 1016.5
20260506231029 82 150 2.0 7.0 0.00 0.00 0.00 43 1016.6
20260506230528 82 79 2.0 7.0 0.00 0.00 0.00 43 1016.6
20260506230039 82 223 1.0 7.0 0.00 0.00 0.00 43 1016.7
20260506225531 82 249 2.0 7.0 0.00 0.00 0.00 43 1016.7
20260506225028 82 202 2.0 6.0 0.00 0.00 0.00 43 1016.8
20260506224557 82 245 2.0 5.0 0.00 0.00 0.00 42 1017.0
20260506224027 82 217 2.0 5.0 0.00 0.00 0.00 42 1017.1
20260506223527 82 242 1.0 6.0 0.00 0.00 0.00 43 1017.1
20260506223042 81 263 2.0 6.0 0.00 0.00 0.00 43 1017.2
20260506222529 82 134 2.0 6.0 0.00 0.00 0.00 42 1017.2
20260506222029 82 210 1.0 6.0 0.00 0.00 0.00 42 1017.3
20260506221539 82 224 1.0 6.0 0.00 0.00 0.00 42 1017.3
20260506221028 82 289 2.0 6.0 0.00 0.00 0.00 43 1017.4
20260506220528 82 82 2.0 5.0 0.00 0.00 0.00 42 1017.4
20260506220051 83 130 1.0 5.0 0.00 0.00 0.00 41 1017.5
20260506215528 82 73 1.0 4.0 0.00 0.00 0.00 42 1017.6
20260506215028 81 228 1.0 5.0 0.00 0.00 0.00 37 1017.7
20260506214537 81 323 2.0 7.0 0.00 0.00 0.00 39 1017.8
20260506214033 81 289 2.0 7.0 0.00 0.00 0.00 38 1017.8
20260506213528 81 46 1.0 6.0 0.00 0.00 0.00 40 1017.8
20260506213044 81 341 1.0 5.0 0.00 0.00 0.00 39 1017.8
20260506212529 81 318 2.0 5.0 0.00 0.00 0.00 39 1017.8
20260506212029 81 167 1.0 4.0 0.00 0.00 0.00 41 1017.8
20260506211551 80 217 0.0 5.0 0.00 0.00 0.00 41 1017.9
20260506211028 80 321 1.0 5.0 0.00 0.00 0.00 41 1018.0
20260506210530 80 67 2.0 5.0 0.00 0.00 0.00 40 1018.0
20260506210044 80 293 2.0 4.0 0.00 0.00 0.00 44 1018.0
20260506205528 79 300 1.0 4.0 0.00 0.00 0.00 41 1018.1
20260506205028 79 306 2.0 6.0 0.00 0.00 0.00 43 1018.1
20260506204542 79 0 1.0 6.0 0.00 0.00 0.00 40 1018.1
20260506204031 80 284 1.0 6.0 0.00 0.00 0.00 42 1018.1
20260506203528 79 236 1.0 6.0 0.00 0.00 0.00 41 1018.2
20260506203036 79 326 2.0 6.0 0.00 0.00 0.00 43 1018.3
20260506202529 78 232 1.0 4.0 0.00 0.00 0.00 42 1018.3
20260506202029 79 347 1.0 4.0 0.00 0.00 0.00 41 1018.4
20260506201542 78 233 1.0 6.0 0.00 0.00 0.00 42 1018.4
20260506201028 79 297 1.0 6.0 0.00 0.00 0.00 43 1018.4
20260506200531 78 0 2.0 7.0 0.00 0.00 0.00 42 1018.5
20260506200041 78 310 2.0 7.0 0.00 0.00 0.00 44 1018.5
20260506195531 79 27 1.0 5.0 0.00 0.00 0.00 44 1018.6
20260506195028 79 244 2.0 4.0 0.00 0.00 0.00 44 1018.6
20260506194544 78 273 0.0 4.0 0.00 0.00 0.00 45 1018.6
20260506194029 77 120 0.0 6.0 0.00 0.00 0.00 47 1018.7
20260506193528 77 307 2.0 6.0 0.00 0.00 0.00 47 1018.7
20260506193045 77 0 1.0 4.0 0.00 0.00 0.00 47 1018.7
20260506192528 77 0 0.0 5.0 0.00 0.00 0.00 47 1018.7
20260506192028 76 106 1.0 5.0 0.00 0.00 0.00 49 1018.9
20260506191537 76 302 1.0 4.0 0.00 0.00 0.00 47 1018.9
20260506191029 76 0 0.0 5.0 0.00 0.00 0.00 47 1019.0
20260506190529 76 210 1.0 5.0 0.00 0.00 0.00 50 1019.1
20260506190044 75 0 0.0 4.0 0.00 0.00 0.00 49 1019.2
20260506185530 75 315 1.0 5.0 0.00 0.00 0.00 48 1019.4
20260506185030 75 315 2.0 5.0 0.00 0.00 0.00 50 1019.4
20260506184542 75 0 1.0 3.0 0.00 0.00 0.00 49 1019.4
20260506184029 75 235 0.0 3.0 0.00 0.00 0.00 48 1019.4
20260506183531 74 146 0.0 5.0 0.00 0.00 0.00 52 1019.5
20260506183043 73 61 0.0 5.0 0.00 0.00 0.00 53 1019.6
20260506182528 73 312 0.0 3.0 0.00 0.00 0.00 57 1019.6
20260506182028 72 226 0.0 3.0 0.00 0.00 0.00 55 1019.7
20260506181558 71 0 1.0 3.0 0.00 0.00 0.00 57 1019.8
20260506181029 71 0 1.0 6.0 0.00 0.00 0.00 56 1019.8
20260506180528 71 314 0.0 6.0 0.00 0.00 0.00 57 1019.9
20260506180037 70 105 0.0 3.0 0.00 0.00 0.00 62 1019.9
20260506175530 69 0 0.0 5.0 0.00 0.00 0.00 61 1020.0
20260506175028 68 0 2.0 5.0 0.00 0.00 0.00 62 1020.0
20260506174541 69 311 1.0 5.0 0.00 0.00 0.00 61 1020.0
20260506174029 69 188 0.0 2.0 0.00 0.00 0.00 62 1020.0
20260506173529 68 0 0.0 3.0 0.00 0.00 0.00 64 1020.1
20260506173116 67 0 0.0 3.0 0.00 0.00 0.00 65 1020.1
20260506172529 66 321 1.0 3.0 0.00 0.00 0.00 65 1020.1
20260506172028 65 0 1.0 4.0 0.00 0.00 0.00 67 1020.2
20260506171551 65 232 1.0 4.0 0.00 0.00 0.00 69 1020.2
20260506171027 64 0 1.0 4.0 0.00 0.00 0.00 69 1020.2
20260506170529 64 340 1.0 3.0 0.00 0.00 0.00 69 1020.2
20260506170039 63 343 0.0 3.0 0.00 0.00 0.00 71 1020.3
20260506165528 63 300 0.0 4.0 0.00 0.00 0.00 72 1020.4
20260506165029 62 284 0.0 4.0 0.00 0.00 0.00 73 1020.4
20260506164543 61 335 0.0 5.0 0.00 0.00 0.00 74 1020.4
20260506164030 61 0 0.0 5.0 0.00 0.00 0.00 76 1020.4
20260506163529 60 336 1.0 4.0 0.00 0.00 0.00 77 1020.5
20260506163041 59 316 1.0 3.0 0.00 0.00 0.00 78 1020.6
20260506162528 59 0 1.0 3.0 0.00 0.00 0.00 79 1020.7
20260506162032 58 356 0.0 4.0 0.00 0.00 0.00 80 1020.7
20260506161543 57 0 0.0 4.0 0.00 0.00 0.00 83 1020.7
20260506161031 57 0 0.0 4.0 0.00 0.00 0.00 85 1020.8
20260506160531 56 0 0.0 3.0 0.00 0.00 0.00 86 1020.8
20260506160058 55 0 0.0 3.0 0.00 0.00 0.00 87 1020.8
20260506155558 54 312 1.0 3.0 0.00 0.00 0.00 88 1020.9
20260506155029 53 0 0.0 0.0 0.00 0.00 0.00 90 1020.9
20260506154547 53 0 0.0 0.0 0.00 0.00 0.00 91 1021.0
20260506154029 52 0 0.0 0.0 0.00 0.00 0.00 93 1021.0
20260506153529 51 0 0.0 0.0 0.00 0.00 0.00 94 1021.1
20260506153036 51 0 0.0 1.0 0.00 0.00 0.00 93 1021.1
20260506152527 50 0 0.0 1.0 0.00 0.00 0.00 94 1021.2
20260506152029 50 0 0.0 1.0 0.00 0.00 0.00 94 1021.1
20260506151545 50 0 0.0 0.0 0.00 0.00 0.00 95 1021.1
20260506151028 50 0 0.0 0.0 0.00 0.00 0.00 95 1021.2
20260506150527 49 0 0.0 0.0 0.00 0.00 0.00 95 1021.2
20260506150045 49 0 0.0 0.0 0.00 0.00 0.00 95 1021.2
20260506145529 49 0 0.0 0.0 0.00 0.00 0.00 96 1021.3
20260506145029 48 0 0.0 0.0 0.00 0.00 0.00 96 1021.3
20260506144545 48 0 0.0 0.0 0.00 0.00 0.00 96 1021.3
20260506144031 48 0 0.0 0.0 0.00 0.00 0.00 96 1021.3
20260506143529 48 0 0.0 0.0 0.00 0.00 0.00 96 1021.2
20260506143038 47 0 0.0 0.0 0.00 0.00 0.00 96 1021.2
20260506142528 47 0 0.0 0.0 0.00 0.00 0.00 96 1021.0
20260506142027 46 0 0.0 0.0 0.00 0.00 0.00 96 1021.0
20260506141542 46 0 0.0 0.0 0.00 0.00 0.00 96 1021.0
20260506141029 46 0 0.0 0.0 0.00 0.00 0.00 96 1020.9
20260506140529 45 0 0.0 0.0 0.00 0.00 0.00 96 1020.9
20260506140043 45 0 0.0 0.0 0.00 0.00 0.00 96 1020.9
20260506135528 45 0 0.0 0.0 0.00 0.00 0.00 96 1020.7
20260506135028 45 0 0.0 0.0 0.00 0.00 0.00 96 1020.6
20260506134548 45 0 0.0 0.0 0.00 0.00 0.00 96 1020.5
20260506134029 45 0 0.0 0.0 0.00 0.00 0.00 96 1020.5
20260506133531 44 0 0.0 0.0 0.00 0.00 0.00 96 1020.5
20260506133041 44 0 0.0 0.0 0.00 0.00 0.00 96 1020.4
20260506132529 44 0 0.0 0.0 0.00 0.00 0.00 96 1020.3
20260506132032 44 0 0.0 0.0 0.00 0.00 0.00 96 1020.3
20260506131558 43 0 0.0 0.0 0.00 0.00 0.00 96 1020.2
20260506131030 43 0 0.0 0.0 0.00 0.00 0.00 96 1020.4
20260506130532 43 0 0.0 0.0 0.00 0.00 0.00 96 1020.4
20260506130040 43 0 0.0 0.0 0.00 0.00 0.00 96 1020.3
20260506125526 42 0 0.0 0.0 0.00 0.00 0.00 96 1020.3
20260506125028 42 0 0.0 0.0 0.00 0.00 0.00 96 1020.3
20260506124542 42 0 0.0 0.0 0.00 0.00 0.00 96 1020.3
20260506124028 42 0 0.0 0.0 0.00 0.00 0.00 96 1020.2
20260506123534 42 0 0.0 0.0 0.00 0.00 0.00 95 1020.2
20260506123044 42 0 0.0 0.0 0.00 0.00 0.00 95 1020.2
20260506122529 42 0 0.0 0.0 0.00 0.00 0.00 96 1020.1
20260506122030 42 0 0.0 0.0 0.00 0.00 0.00 96 1020.2
20260506121548 42 0 0.0 0.0 0.00 0.00 0.00 95 1020.0
20260506121026 42 0 0.0 0.0 0.00 0.00 0.00 95 1020.0
20260506120532 42 0 0.0 0.0 0.00 0.00 0.00 95 1019.9
20260506120053 42 0 0.0 0.0 0.00 0.00 0.00 95 1019.8
20260506115531 42 0 0.0 0.0 0.00 0.00 0.00 95 1019.7
20260506115028 42 0 0.0 0.0 0.00 0.00 0.00 95 1019.7
20260506114546 42 0 0.0 0.0 0.00 0.00 0.00 95 1019.7
20260506114031 42 0 0.0 0.0 0.00 0.00 0.00 95 1019.8
20260506113529 42 0 0.0 0.0 0.00 0.00 0.00 95 1019.7
20260506113044 42 0 0.0 0.0 0.00 0.00 0.00 95 1019.7
20260506112529 42 0 0.0 0.0 0.00 0.00 0.00 95 1019.7
20260506112029 42 0 0.0 0.0 0.00 0.00 0.00 95 1019.8
20260506111538 42 0 0.0 0.0 0.00 0.00 0.00 95 1019.8
20260506111033 42 0 0.0 0.0 0.00 0.00 0.00 95 1019.7
20260506110530 43 0 0.0 0.0 0.00 0.00 0.00 95 1019.7
20260506110041 43 0 0.0 0.0 0.00 0.00 0.00 95 1019.7
20260506105526 43 0 0.0 0.0 0.00 0.00 0.00 95 1019.7
20260506105030 43 0 0.0 0.0 0.00 0.00 0.00 95 1019.7
20260506104535 43 0 0.0 0.0 0.00 0.00 0.00 95 1019.7
20260506104030 43 0 0.0 0.0 0.00 0.00 0.00 95 1019.6
20260506103527 43 0 0.0 0.0 0.00 0.00 0.00 95 1019.7
20260506103044 43 0 0.0 0.0 0.00 0.00 0.00 95 1019.7
20260506102528 44 0 0.0 0.0 0.00 0.00 0.00 95 1019.8
20260506102026 44 0 0.0 0.0 0.00 0.00 0.00 95 1019.8
20260506101542 44 0 0.0 0.0 0.00 0.00 0.00 95 1019.8
20260506101028 44 0 0.0 0.0 0.00 0.00 0.00 95 1019.7
20260506100534 44 0 0.0 0.0 0.00 0.00 0.00 95 1019.7
20260506100040 44 0 0.0 0.0 0.00 0.00 0.00 95 1019.7
20260506095529 44 0 0.0 0.0 0.00 0.00 0.00 94 1019.6
20260506095026 44 0 0.0 0.0 0.00 0.00 0.00 94 1019.7
20260506094547 45 0 0.0 0.0 0.00 0.00 0.00 95 1019.6
20260506094031 45 0 0.0 0.0 0.00 0.00 0.00 94 1019.6
20260506093527 45 0 0.0 0.0 0.00 0.00 0.00 94 1019.6
20260506093039 45 0 0.0 0.0 0.00 0.00 0.00 94 1019.6
20260506092527 45 0 0.0 0.0 0.00 0.00 0.00 94 1019.6
20260506092029 45 0 0.0 0.0 0.00 0.00 0.00 94 1019.5
20260506091543 45 0 0.0 0.0 0.00 0.00 0.00 94 1019.5
20260506091032 46 0 0.0 0.0 0.00 0.00 0.00 95 1019.5
20260506090528 46 0 0.0 1.0 0.00 0.00 0.00 95 1019.5
20260506090041 46 0 0.0 2.0 0.00 0.00 0.00 95 1019.5
20260506085528 46 0 0.0 2.0 0.00 0.00 0.00 95 1019.4
20260506085029 46 0 0.0 0.0 0.00 0.00 0.00 95 1019.4
20260506084544 46 0 0.0 0.0 0.00 0.00 0.00 95 1019.4
20260506084029 46 0 0.0 0.0 0.00 0.00 0.00 95 1019.4
20260506083528 46 0 0.0 0.0 0.00 0.00 0.00 94 1019.5
20260506083041 46 0 0.0 0.0 0.00 0.00 0.00 94 1019.5
20260506082532 46 0 0.0 0.0 0.00 0.00 0.00 95 1019.5
20260506082032 45 0 0.0 0.0 0.00 0.00 0.00 95 1019.4
20260506081544 45 0 0.0 0.0 0.00 0.00 0.00 94 1019.4
20260506081031 45 0 0.0 0.0 0.00 0.00 0.00 94 1019.5
20260506080529 45 0 0.0 0.0 0.00 0.00 0.00 94 1019.4
20260506073528 45 0 0.0 0.0 0.00 0.00 0.00 93 1019.3
20260506073042 45 0 0.0 0.0 0.00 0.00 0.00 93 1019.2
20260506072531 45 0 0.0 0.0 0.00 0.00 0.00 93 1019.1
20260506072028 46 0 0.0 0.0 0.00 0.00 0.00 92 1019.1
20260506071548 46 0 0.0 0.0 0.00 0.00 0.00 92 1019.0
20260506071029 46 0 0.0 0.0 0.00 0.00 0.00 92 1019.0
20260506070528 46 0 0.0 0.0 0.00 0.00 0.00 92 1018.8
20260506062028 48 0 0.0 0.0 0.00 0.00 0.00 92 1018.5
20260506061539 48 0 0.0 0.0 0.00 0.00 0.00 92 1018.5
20260506061029 48 0 0.0 0.0 0.00 0.00 0.00 93 1018.5
20260506060534 48 0 0.0 0.0 0.00 0.00 0.00 92 1018.4
20260506051030 49 0 0.0 0.0 0.00 0.00 0.00 89 1018.1
20260506050526 50 0 0.0 0.0 0.00 0.00 0.00 89 1018.0
20260506045026 50 0 0.0 0.0 0.00 0.00 0.00 88 1017.9
20260506044543 51 0 0.0 0.0 0.00 0.00 0.00 88 1017.9
20260506044027 51 0 0.0 0.0 0.00 0.00 0.00 87 1017.8
20260506043527 51 0 0.0 0.0 0.00 0.00 0.00 86 1017.7
20260506043043 52 0 0.0 0.0 0.00 0.00 0.00 86 1017.7
20260506042527 52 0 0.0 0.0 0.00 0.00 0.00 85 1017.6
20260506042026 52 0 0.0 0.0 0.00 0.00 0.00 85 1017.5
20260506041548 53 0 0.0 0.0 0.00 0.00 0.00 84 1017.6
20260506041026 53 0 0.0 0.0 0.00 0.00 0.00 84 1017.5
20260506040529 54 0 0.0 0.0 0.00 0.00 0.00 84 1017.5
20260506040044 54 0 0.0 0.0 0.00 0.00 0.00 84 1017.4
20260506035526 54 0 0.0 0.0 0.00 0.00 0.00 83 1017.2
20260506035029 54 0 0.0 0.0 0.00 0.00 0.00 83 1017.2
20260506034539 54 0 0.0 0.0 0.00 0.00 0.00 82 1017.2
20260506034030 55 0 0.0 0.0 0.00 0.00 0.00 82 1017.0
20260506033530 55 0 0.0 0.0 0.00 0.00 0.00 81 1016.8
20260506033040 55 0 0.0 0.0 0.00 0.00 0.00 80 1016.7
20260506032527 56 0 0.0 0.0 0.00 0.00 0.00 79 1016.7
20260506032029 56 0 0.0 0.0 0.00 0.00 0.00 79 1016.5
20260506031549 56 0 0.0 1.0 0.00 0.00 0.00 78 1016.5
20260506031027 57 0 0.0 1.0 0.00 0.00 0.00 77 1016.4
20260506030530 57 0 0.0 1.0 0.00 0.00 0.00 76 1016.2
20260506030041 57 0 0.0 1.0 0.00 0.00 0.00 75 1016.1
20260506025527 58 0 0.0 0.0 0.00 0.00 0.00 75 1016.1
20260506025033 58 0 0.0 1.0 0.00 0.00 0.00 74 1016.0
20260506024556 58 0 0.0 2.0 0.00 0.00 0.00 73 1015.9
20260506024028 59 243 0.0 2.0 0.00 0.00 0.00 73 1016.0
20260506023527 59 232 0.0 2.0 0.00 0.00 0.00 73 1015.9
20260506023047 59 0 0.0 1.0 0.00 0.00 0.00 73 1015.8
20260506022530 59 78 0.0 1.0 0.00 0.00 0.00 73 1015.7
20260506022027 60 0 0.0 4.0 0.00 0.00 0.00 73 1015.7
20260506021538 60 0 0.0 4.0 0.00 0.00 0.00 73 1015.7
20260506021028 60 0 1.0 4.0 0.00 0.00 0.00 72 1015.6
20260506020526 60 142 0.0 2.0 0.00 0.00 0.00 71 1015.6
20260506020044 60 0 0.0 4.0 0.00 0.00 0.00 70 1015.5
20260506015530 61 0 0.0 4.0 0.00 0.00 0.00 70 1015.5
20260506015027 61 242 0.0 4.0 0.00 0.00 0.00 68 1015.5
20260506014544 62 0 0.0 5.0 0.00 0.00 0.00 67 1015.5
20260506014032 62 239 1.0 5.0 0.00 0.00 0.00 67 1015.5
20260506013531 63 0 0.0 4.0 0.00 0.00 0.00 66 1015.5
20260506013043 63 0 0.0 3.0 0.00 0.00 0.00 66 1015.5
20260506012529 63 0 0.0 3.0 0.00 0.00 0.00 65 1015.4
20260506012030 63 238 0.0 2.0 0.00 0.00 0.00 64 1015.4
20260506011537 63 0 0.0 5.0 0.00 0.00 0.00 64 1015.5
20260506011031 63 0 0.0 5.0 0.00 0.00 0.00 64 1015.6
20260506010529 63 0 1.0 5.0 0.00 0.00 0.00 63 1015.6
20260506010036 63 112 2.0 5.0 0.00 0.00 0.00 62 1015.4
20260506005529 64 259 2.0 5.0 0.00 0.00 0.00 60 1015.6
20260506005028 64 165 1.0 6.0 0.00 0.00 0.00 60 1015.5
20260506004541 64 0 1.0 6.0 0.00 0.00 0.00 60 1015.4